SCP
0 0 0 0 0 0 0 0 0 0 0 0 0 0 0 0 0 0 0 0 0 0 0 0 0 0 0 0 0 0 0 0 0 0 0 0 0 0 0 0 0 0 0 0 0 0 0
0 0 0 0 0 0 0 0 0 0 0 0 0 0 0 0 0 0 0 0 0 0 0 0 0 0 0 0 0 0 0 0 0 0 0 0 0 0 0 0 0 0 0 0 0 0 0
0 0 0 0 0 0 0 0 0 0 0 0 0 0 0 0 0 0 0 0 0 0 0 0 0 0 0 0 0 0 0 0 0 0 0 0 0 0 0 0 0 0 0 0 0 0 0
0 0 0 0 0 0 0 0 0 0 0 0 0 0 0 0 0 0 0 0 0 0 0 0 0 0 0 0 0 0 0 0 0 0 0 0 0 0 0 0 0 0 0 0 0 0 0
0 0 0 0 0 0 0 0 0 0 0 0 0 0 0 0 0 0 0 0 0 0 0 0 0 0 0 0 0 0 0 0 0 0 0 0 0 0 0 0 0 0 0 0 0 0 0
0 0 0 0 0 0 0 0 0 0 0 0 0 0 0 0 0 0 0 0 0 0 0 0 0 0 0 0 0 0 0 0 0 0 0 0 0 0 0 0 0 0 0 0 0 0 0
0 0 0 0 0 0 0 0 0 0 0 0 0 0 0 0 0 0 0 0 0 0 0 0 0 0 0 0 0 0 0 0 0 0 0 0 0 0 0 0 0 0 0 0 0 0 0
0 0 0 0 0 0 0 0 0 0 0 0 0 0 0 0 0 0 0 0 0 0 0 0 0 0 0 0 0 0 0 0 0 0 0 0 0 0 0 0 0 0 0 0 0 0 0
0 0 0 0 0 0 -0 0 0 0 0 0 0 0 0 0 0 0 0 0 0 0 0 0 0 0 0 0 0 0 0 0 0 0 0 0 0 0 0 0 0 0 0 0 0 0 0
0 0 0 0 0 0 0 -0 -0 0 0 0 0 0 0 0 0 0 0 0 0 0 0 0 0 0 0 0 0 0 0 0 0 0 0 0 0 0 0 0 0 0 0 0 0 0 0
0 0 0 0 0 0 0 0 0 0 -0 0 0 0 0 0 0 0 0 0 0 0 0 0 0 0 0 0 0 0 0 0 0 0 0 0 0 0 0 0 0 0 0 0 0 0 0
0 0 0 0 0 0 0 0 0 -0 0 -0 -0 0 0 0 0 0 0 0 0 0 0 0 0 0 0 0 0 0 0 0 0 0 0 0 0 0 0 0 0 0 0 0 0 0 0
0 0 0 0 0 0 0 0 -0 -0 -0 -0 -0 0 0 0 0 0 0 0 0 0 0 0 0 0 0 0 0 0 0 0 0 0 0 0 0 0 0 0 0 0 0 0 0 0 0
0 0 0 0 0 0 0 0 -0 0 0 0 0 0 0 0 0 0 0 0 0 0 0 0 0 0 0 0 0 0 0 0 0 0 0 0 0 0 0 0 0 0 0 0 0 0 0
-0 0 0 0 0 0 0 0 0 0 0 0 0 0 0 0 0 0 0 0 0 0 0 0 0 0 0 0 0 0 0 0 0 0 0 0 0 0 0 0 0 0 0 0 0 0 0
0 0 0 0 0 0 0 0 0 0 0 0 0 0 0 0 0 0 0 0 0 0 0 0 0 0 0 0 0 0 0 0 0 0 0 0 0 0 0 0 0 0 0 0 0 0 0
0 0 -0 0 0 0 0 0 0 0 0 0 0 0 0 0 0 0 0 0 0 0 0 0 0 0 0 0 0 0 0 0 0 0 0 0 0 0 0 0 0 0 0 0 0 0 0
0 0 0 0 -0 0 0 0 0 0 0 0 0 0 0 0 0 0 0 0 0 0 0 0 0 0 0 0 0 0 0 0 0 0 0 0 0 0 0 0 0 0 0 0 0 0 0
0 0 0 0 -0 -0 0 0 -0 0 0 0 0 0 0 0 0 0 0 0 0 0 0 0 0 0 0 0 0 0 0 0 0 0 0 0 0 0 0 0 0 0 0 0 0 0 0
0 0 0 0 -0 0 0 0 0 -0 0 0 0 0 0 0 0 0 0 0 0 0 0 0 0 0 0 0 0 0 0 0 0 0 0 0 0 0 0 0 0 0 0 0 0 0 0
0 0 0 0 0 0 0 0 0 0 0 0 0 0 0 0 0 0 0 0 0 0 0 0 0 0 0 0 0 0 0 0 0 0 0 0 0 0 0 0 0 0 0 0 0 0 0
0 0 0 0 0 0 0 0 0 0 0 0 0 0 0 0 0 0 0 0 0 0 0 0 0 0 0 0 0 0 0 0 0 0 0 0 0 0 0 0 0 0 0 0 0 0 0
0 0 0 0 0 0 0 0 0 0 0 0 0 0 0 0 0 0 0 0 0 0 0 0 0 0 0 0 0 0 0 0 0 0 0 0 0 0 0 0 0 0 0 0 0 0 0
0 0 0 0 0 0 0 0 0 0 0 0 0 0 0 0 0 0 0 0 0 0 0 0 0 0 0 0 0 0 0 0 0 0 0 0 0 0 0 0 0 0 0 0 0 0 0
0 0 0 0 0 0 0 0 0 0 0 0 0 0 0 0 0 0 0 0 0 0 0 0 0 0 0 0 0 0 0 0 0 0 0 0 0 0 0 0 0 0 0 0 0 0 0
0 0 0 0 0 0 0 0 -0 0 -0 0 0 0 0 0 0 0 0 0 0 0 0 0 0 0 0 0 0 0 0 0 0 0 0 0 0 0 0 0 0 0 0 0 0 0 0
0 0 0 0 0 0 0 0 0 0 0 0 0 0 0 0 0 0 0 0 0 0 0 0 0 0 0 0 0 0 0 0 0 0 0 0 0 0 0 0 0 0 0 0 0 0 0
0 0 0 0 0 0 0 0 0 -0 0 0 0 0 0 0 0 0 0 0 0 0 0 0 0 0 0 0 0 0 0 0 0 0 0 0 0 0 0 0 0 0 0 0 0 0 0
0 0 0 0 0 0 0 0 0 -0 -0 0 0 0 0 0 0 0 0 0 0 0 0 0 0 0 0 0 0 0 0 0 0 0 0 0 0 0 0 0 0 0 0 0 0 0 0
Wind_Speed_500mb
33 39 44 43 41 40 39 37 35 36 32 30 29 27 28 26 24 21 20 20 19 17 16 14 12 10 7 9 13 16 14 12 7 4 2 3 10 10 11 6 5 17 17 19 23 24 27
38 35 28 39 50 46 45 42 41 38 35 33 32 30 32 29 28 23 22 21 20 18 17 14 12 9 7 17 16 17 14 10 7 3 5 3 5 6 12 9 7 14 20 32 30 33 24
48 48 47 47 44 59 55 47 45 42 40 35 33 34 32 33 29 24 24 24 23 20 18 15 11 10 12 18 18 15 12 10 8 11 5 11 11 8 6 11 7 12 11 19 27 28 5
50 52 52 55 53 59 57 56 49 47 40 37 37 34 34 34 28 25 24 24 23 22 19 15 12 10 10 19 24 17 10 6 7 8 12 6 6 5 7 9 9 8 10 8 5 12 6
55 47 57 63 61 56 57 57 53 51 44 45 47 43 39 36 30 25 21 20 20 19 18 14 9 9 7 12 16 17 16 6 6 3 5 5 5 7 7 7 8 13 8 11 2 11 10
53 43 42 50 46 51 41 49 60 50 52 54 55 62 49 39 34 27 19 18 17 17 16 12 14 8 17 10 18 18 16 13 5 4 2 5 8 5 6 8 7 7 7 9 14 5 13
43 36 35 47 50 40 25 15 47 51 60 64 58 46 49 50 37 27 19 13 8 8 20 17 9 3 15 18 16 15 14 8 7 8 8 9 7 13 11 12 7 8 9 16 19 12 11
45 40 33 37 47 51 38 27 13 23 35 40 47 47 40 43 40 30 22 11 11 6 11 29 26 19 16 20 7 13 13 13 12 10 12 4 12 8 7 8 4 10 13 15 16 7 8
48 37 36 35 38 39 26 38 27 21 15 15 15 19 24 32 33 32 28 20 14 9 8 12 20 15 13 23 10 23 21 10 11 13 14 9 7 7 2 8 9 10 9 8 9 18 18
64 31 34 36 39 39 25 31 23 22 22 22 25 30 21 17 19 18 22 22 14 7 3 13 13 11 16 17 8 16 25 11 5 10 10 9 9 3 6 8 4 3 10 8 10 11 6
55 47 19 24 35 26 22 22 24 23 22 32 27 25 21 12 6 10 10 18 13 14 6 13 10 15 17 12 21 6 16 7 8 12 8 4 8 6 2 2 7 2 7 8 6 6 11
50 54 34 23 10 14 16 20 26 31 41 47 46 40 22 16 21 14 18 19 28 7 13 8 11 11 11 8 7 11 6 6 4 3 2 5 5 3 2 7 2 8 7 10 6 5 5
45 48 37 40 36 35 33 37 42 52 57 65 52 31 26 17 18 27 19 29 6 9 3 10 9 14 15 11 10 11 11 10 8 9 9 6 7 6 2 4 7 4 6 2 3 2 8
37 38 46 38 57 49 49 57 53 56 68 50 16 20 28 27 24 28 41 7 13 5 5 4 9 14 9 9 6 11 9 10 6 2 3 10 7 9 5 6 3 3 0 4 8 6 3
53 46 46 42 33 45 53 56 54 51 32 20 16 12 28 28 30 35 21 8 8 5 7 13 13 6 8 7 4 10 14 9 8 14 11 7 5 9 8 6 5 6 4 5 2 4 2
56 62 46 45 43 37 41 41 45 33 27 8 7 14 22 28 32 33 8 16 6 3 4 3 5 5 13 11 10 11 16 4 9 3 3 4 8 5 7 2 4 7 2 4 1 4 8
50 55 65 43 45 38 36 35 34 23 20 19 12 13 17 28 33 22 15 5 6 14 4 7 5 6 1 10 11 6 10 5 9 8 7 8 2 7 7 11 10 6 3 4 3 4 5
50 51 42 44 48 47 41 30 23 18 13 17 12 5 11 34 15 5 4 5 3 9 4 4 6 8 3 5 3 9 12 10 8 15 8 6 2 7 4 3 6 6 2 10 5 6 5
43 49 47 48 54 52 45 36 22 20 19 18 10 9 9 39 11 9 5 4 4 6 6 6 10 7 6 7 7 2 8 8 10 2 5 7 6 4 5 6 4 7 8 9 6 1 10
50 42 49 41 51 38 46 38 26 14 31 19 7 6 8 27 8 9 8 6 8 5 2 10 4 12 7 5 4 9 9 6 7 6 8 1 3 6 4 7 7 8 17 23 12 6 6
55 47 43 43 42 38 50 46 32 15 35 20 10 3 7 7 10 4 13 10 16 11 10 13 8 6 9 7 8 8 8 8 7 14 9 1 7 2 7 8 8 10 13 22 33 22 10
51 49 42 41 39 38 35 33 44 26 32 28 7 5 5 4 9 20 17 15 17 7 14 9 6 16 8 8 7 10 12 12 10 12 10 5 3 3 7 2 7 7 20 21 22 24 23
55 45 43 34 39 37 36 28 53 42 33 32 28 11 4 10 5 12 22 12 18 21 19 17 17 9 11 8 19 19 22 17 14 15 9 9 4 4 7 2 5 12 16 22 9 6 17
57 49 43 37 34 39 40 37 43 57 44 39 29 23 9 5 11 14 11 27 18 15 9 15 8 8 14 26 27 16 17 13 12 8 9 10 6 4 6 6 2 10 1 4 11 9 8
53 51 45 39 37 31 44 36 34 39 48 44 29 32 12 5 15 15 15 8 24 21 6 10 4 9 29 16 5 6 3 5 3 2 11 5 7 4 5 6 10 2 7 10 11 11 13
50 49 48 41 32 33 32 39 39 49 66 53 41 30 15 1 2 6 8 12 5 7 7 8 13 28 23 4 4 8 9 8 5 1 3 10 1 7 4 4 9 9 5 10 5 7 2
48 47 49 41 36 33 31 38 41 31 68 56 44 34 21 9 5 3 1 7 8 12 6 11 14 9 12 6 4 5 5 4 8 12 9 6 4 13 8 5 13 6 14 17 9 6 4
46 45 44 45 34 31 28 31 33 29 65 64 48 35 30 13 4 8 7 1 3 20 7 15 10 5 5 4 6 6 5 8 4 6 10 12 12 7 7 9 16 29 12 10 6 3 6
42 42 41 44 35 31 30 30 26 30 28 60 44 34 26 13 5 12 14 16 12 10 14 34 2 7 16 4 1 4 4 4 3 5 3 5 10 7 12 8 2 35 6 10 1 2 4
Wind_Direction_500mb
310 295 297 298 297 291 280 275 270 267 265 264 265 266 267 269 270 271 275 279 280 283 286 287 285 274 256 246 238 254 240 260 253 239 180 214 240 243 265 283 319 235 265 294 299 282 269
306 311 297 285 288 285 282 273 268 264 261 260 262 263 270 271 271 273 272 278 281 281 280 276 271 252 224 256 257 248 239 237 231 189 262 189 272 259 296 282 242 6 308 290 286 269 278
308 314 308 301 296 280 276 271 265 262 259 257 259 266 269 276 280 269 271 275 279 280 281 274 261 244 233 248 254 236 234 238 224 199 187 233 216 179 315 256 308 279 295 276 248 237 214
296 301 308 310 302 287 272 264 261 256 251 256 261 260 271 281 282 276 272 276 276 273 273 269 257 227 254 235 233 227 231 236 184 169 181 203 205 217 214 325 253 244 226 284 58 119 106
295 306 302 301 310 300 271 256 252 252 248 249 256 257 260 271 278 272 275 278 273 269 266 259 242 220 233 216 204 215 185 192 188 215 241 229 196 249 180 226 267 204 257 272 3 183 137
289 291 309 306 309 322 266 259 253 246 245 245 247 250 248 257 266 262 272 281 278 272 259 249 211 231 223 201 197 188 179 178 160 228 272 184 212 234 219 206 213 350 287 332 311 143 203
286 286 296 305 309 309 333 214 239 236 237 240 234 221 241 256 252 248 256 260 265 251 213 211 232 143 144 188 172 174 190 177 163 200 219 186 225 215 236 207 319 347 295 272 289 334 345
308 278 291 306 301 304 295 303 330 214 213 215 219 220 231 245 245 241 241 216 257 222 280 236 226 206 173 172 162 200 193 175 190 218 183 144 227 67 76 59 341 288 279 278 281 84 339
313 286 289 300 291 281 278 289 291 289 299 309 311 278 260 241 244 238 233 217 251 290 261 206 211 206 203 201 215 172 182 193 216 223 190 237 86 109 30 284 241 254 259 322 318 334 264
330 293 292 295 287 246 273 280 263 280 293 291 297 303 294 293 254 236 219 226 216 185 275 203 199 192 181 152 181 188 174 173 205 223 197 252 110 207 207 247 76 283 28 8 326 2 281
314 322 276 308 293 264 235 235 254 269 280 284 293 304 306 231 230 187 197 187 174 152 235 95 138 155 160 176 135 173 169 165 207 185 146 128 166 170 109 51 57 178 355 292 297 311 332
296 312 262 268 315 255 293 299 300 297 294 292 288 302 279 248 212 216 200 178 155 129 238 135 130 163 156 170 137 126 144 146 91 129 191 58 64 13 220 100 64 343 306 254 219 295 264
283 296 288 257 273 284 289 296 300 301 299 294 293 273 248 217 213 200 196 156 154 204 346 171 178 163 189 158 151 186 170 178 174 137 186 136 161 105 308 171 152 85 256 272 269 304 237
291 271 289 276 261 272 275 282 291 289 285 288 279 265 229 215 196 198 190 182 218 188 169 151 138 166 173 133 155 182 167 194 214 66 145 170 244 162 43 28 97 142 274 139 268 321 330
327 305 267 280 276 263 269 277 279 287 290 294 297 235 234 209 205 196 203 236 189 230 142 149 128 142 167 160 164 178 202 192 129 196 183 121 146 92 59 43 324 167 140 21 274 102 51
313 316 274 260 271 264 263 267 276 280 281 245 306 234 242 204 195 192 214 219 173 73 92 47 179 196 175 170 169 204 175 17 130 221 225 99 121 157 112 346 14 25 34 90 307 270 263
294 313 311 265 257 268 262 277 269 272 272 205 232 217 215 192 192 187 216 244 166 115 85 149 182 126 246 160 177 221 161 350 106 147 246 133 100 126 145 211 162 121 168 241 11 187 229
286 293 309 312 255 251 264 269 265 259 242 208 234 226 240 187 189 197 216 155 146 111 133 180 231 96 166 114 164 171 194 70 131 153 161 42 144 186 117 65 24 23 334 195 174 198 241
300 285 286 307 313 239 248 259 257 247 203 192 235 192 213 191 205 203 144 121 125 139 171 199 207 126 60 149 173 200 114 107 149 170 129 174 205 164 175 138 114 217 180 245 72 59 212
299 287 289 288 306 271 223 243 245 265 196 221 259 196 162 210 244 225 150 180 162 178 235 198 179 106 121 145 52 165 130 135 133 112 107 18 276 228 164 85 102 190 206 208 203 209 232
301 291 285 279 295 292 236 220 232 237 201 219 231 209 181 202 212 232 172 181 177 162 219 213 192 183 174 143 143 185 130 113 171 152 150 161 229 85 278 226 204 209 218 200 212 224 236
301 300 286 278 278 304 218 225 214 208 205 219 241 182 190 296 248 194 202 196 193 157 175 193 203 190 192 150 168 174 136 169 183 167 170 169 112 84 287 8 137 250 234 219 226 236 252
297 294 291 283 261 276 291 268 212 210 208 209 227 238 206 184 188 202 213 191 214 149 205 182 192 140 184 160 122 68 89 62 125 151 158 150 151 168 270 232 315 298 223 195 186 199 208
291 291 287 274 271 259 279 289 263 204 217 202 220 214 199 226 198 215 267 213 211 177 133 175 156 126 123 145 124 99 64 72 98 159 151 152 152 147 279 22 273 249 95 173 173 229 236
284 286 284 278 268 275 258 280 260 210 210 206 206 214 191 243 206 217 242 245 207 185 92 126 118 111 148 127 120 97 61 23 348 244 201 164 173 198 181 245 278 248 231 160 154 274 197
278 277 280 275 267 272 252 259 275 262 201 210 215 214 216 131 189 342 190 167 149 130 117 100 140 152 174 182 155 184 196 197 197 289 304 184 147 161 123 234 237 228 200 171 111 301 326
272 272 272 272 267 260 270 248 269 264 201 200 213 218 206 201 257 181 161 195 198 158 98 127 145 155 170 176 176 184 197 156 182 171 165 146 159 219 217 259 288 202 149 151 92 233 168
268 266 263 268 263 261 265 248 260 268 190 198 210 215 203 200 189 189 191 326 195 148 146 131 125 166 148 229 171 193 147 199 113 149 174 164 166 189 182 210 265 144 119 169 149 191 263
266 264 258 261 256 253 256 249 239 235 210 195 191 202 194 205 178 236 246 251 232 150 123 168 61 146 172 177 160 102 111 129 198 223 178 231 201 183 187 211 47 171 117 155 65 274 296
Wind_Speed_850mb
33 39 44 43 41 40 39 37 35 36 32 30 29 27 28 26 24 21 20 20 19 17 16 14 12 10 7 9 13 16 14 12 7 4 2 3 10 10 11 6 5 17 17 19 23 24 27
38 35 28 39 50 46 45 42 41 38 35 33 32 30 32 29 28 23 22 21 20 18 17 14 12 9 7 17 16 17 14 10 7 3 5 3 5 6 12 9 7 14 20 32 30 33 24
48 48 47 47 44 59 55 47 45 42 40 35 33 34 32 33 29 24 24 24 23 20 18 15 11 10 12 18 18 15 12 10 8 11 5 11 11 8 6 11 7 12 11 19 27 28 5
50 52 52 55 53 59 57 56 49 47 40 37 37 34 34 34 28 25 24 24 23 22 19 15 12 10 10 19 24 17 10 6 7 8 12 6 6 5 7 9 9 8 10 8 5 12 6
55 47 57 63 61 56 57 57 53 51 44 45 47 43 39 36 30 25 21 20 20 19 18 14 9 9 7 12 16 17 16 6 6 3 5 5 5 7 7 7 8 13 8 11 2 11 10
53 43 42 50 46 51 41 49 60 50 52 54 55 62 49 39 34 27 19 18 17 17 16 12 14 8 17 10 18 18 16 13 5 4 2 5 8 5 6 8 7 7 7 9 14 5 13
43 36 35 47 50 40 25 15 47 51 60 64 58 46 49 50 37 27 19 13 8 8 20 17 9 3 15 18 16 15 14 8 7 8 8 9 7 13 11 12 7 8 9 16 19 12 11
45 40 33 37 47 51 38 27 13 23 35 40 47 47 40 43 40 30 22 11 11 6 11 29 26 19 16 20 7 13 13 13 12 10 12 4 12 8 7 8 4 10 13 15 16 7 8
48 37 36 35 38 39 26 38 27 21 15 15 15 19 24 32 33 32 28 20 14 9 8 12 20 15 13 23 10 23 21 10 11 13 14 9 7 7 2 8 9 10 9 8 9 18 18
64 31 34 36 39 39 25 31 23 22 22 22 25 30 21 17 19 18 22 22 14 7 3 13 13 11 16 17 8 16 25 11 5 10 10 9 9 3 6 8 4 3 10 8 10 11 6
55 47 19 24 35 26 22 22 24 23 22 32 27 25 21 12 6 10 10 18 13 14 6 13 10 15 17 12 21 6 16 7 8 12 8 4 8 6 2 2 7 2 7 8 6 6 11
50 54 34 23 10 14 16 20 26 31 41 47 46 40 22 16 21 14 18 19 28 7 13 8 11 11 11 8 7 11 6 6 4 3 2 5 5 3 2 7 2 8 7 10 6 5 5
45 48 37 40 36 35 33 37 42 52 57 65 52 31 26 17 18 27 19 29 6 9 3 10 9 14 15 11 10 11 11 10 8 9 9 6 7 6 2 4 7 4 6 2 3 2 8
37 38 46 38 57 49 49 57 53 56 68 50 16 20 28 27 24 28 41 7 13 5 5 4 9 14 9 9 6 11 9 10 6 2 3 10 7 9 5 6 3 3 0 4 8 6 3
53 46 46 42 33 45 53 56 54 51 32 20 16 12 28 28 30 35 21 8 8 5 7 13 13 6 8 7 4 10 14 9 8 14 11 7 5 9 8 6 5 6 4 5 2 4 2
56 62 46 45 43 37 41 41 45 33 27 8 7 14 22 28 32 33 8 16 6 3 4 3 5 5 13 11 10 11 16 4 9 3 3 4 8 5 7 2 4 7 2 4 1 4 8
50 55 65 43 45 38 36 35 34 23 20 19 12 13 17 28 33 22 15 5 6 14 4 7 5 6 1 10 11 6 10 5 9 8 7 8 2 7 7 11 10 6 3 4 3 4 5
50 51 42 44 48 47 41 30 23 18 13 17 12 5 11 34 15 5 4 5 3 9 4 4 6 8 3 5 3 9 12 10 8 15 8 6 2 7 4 3 6 6 2 10 5 6 5
43 49 47 48 54 52 45 36 22 20 19 18 10 9 9 39 11 9 5 4 4 6 6 6 10 7 6 7 7 2 8 8 10 2 5 7 6 4 5 6 4 7 8 9 6 1 10
50 42 49 41 51 38 46 38 26 14 31 19 7 6 8 27 8 9 8 6 8 5 2 10 4 12 7 5 4 9 9 6 7 6 8 1 3 6 4 7 7 8 17 23 12 6 6
55 47 43 43 42 38 50 46 32 15 35 20 10 3 7 7 10 4 13 10 16 11 10 13 8 6 9 7 8 8 8 8 7 14 9 1 7 2 7 8 8 10 13 22 33 22 10
51 49 42 41 39 38 35 33 44 26 32 28 7 5 5 4 9 20 17 15 17 7 14 9 6 16 8 8 7 10 12 12 10 12 10 5 3 3 7 2 7 7 20 21 22 24 23
55 45 43 34 39 37 36 28 53 42 33 32 28 11 4 10 5 12 22 12 18 21 19 17 17 9 11 8 19 19 22 17 14 15 9 9 4 4 7 2 5 12 16 22 9 6 17
57 49 43 37 34 39 40 37 43 57 44 39 29 23 9 5 11 14 11 27 18 15 9 15 8 8 14 26 27 16 17 13 12 8 9 10 6 4 6 6 2 10 1 4 11 9 8
53 51 45 39 37 31 44 36 34 39 48 44 29 32 12 5 15 15 15 8 24 21 6 10 4 9 29 16 5 6 3 5 3 2 11 5 7 4 5 6 10 2 7 10 11 11 13
50 49 48 41 32 33 32 39 39 49 66 53 41 30 15 1 2 6 8 12 5 7 7 8 13 28 23 4 4 8 9 8 5 1 3 10 1 7 4 4 9 9 5 10 5 7 2
48 47 49 41 36 33 31 38 41 31 68 56 44 34 21 9 5 3 1 7 8 12 6 11 14 9 12 6 4 5 5 4 8 12 9 6 4 13 8 5 13 6 14 17 9 6 4
46 45 44 45 34 31 28 31 33 29 65 64 48 35 30 13 4 8 7 1 3 20 7 15 10 5 5 4 6 6 5 8 4 6 10 12 12 7 7 9 16 29 12 10 6 3 6
42 42 41 44 35 31 30 30 26 30 28 60 44 34 26 13 5 12 14 16 12 10 14 34 2 7 16 4 1 4 4 4 3 5 3 5 10 7 12 8 2 35 6 10 1 2 4
Wind_Direction_850mb
310 295 297 298 297 291 280 275 270 267 265 264 265 266 267 269 270 271 275 279 280 283 286 287 285 274 256 246 238 254 240 260 253 239 180 214 240 243 265 283 319 235 265 294 299 282 269
306 311 297 285 288 285 282 273 268 264 261 260 262 263 270 271 271 273 272 278 281 281 280 276 271 252 224 256 257 248 239 237 231 189 262 189 272 259 296 282 242 6 308 290 286 269 278
308 314 308 301 296 280 276 271 265 262 259 257 259 266 269 276 280 269 271 275 279 280 281 274 261 244 233 248 254 236 234 238 224 199 187 233 216 179 315 256 308 279 295 276 248 237 214
296 301 308 310 302 287 272 264 261 256 251 256 261 260 271 281 282 276 272 276 276 273 273 269 257 227 254 235 233 227 231 236 184 169 181 203 205 217 214 325 253 244 226 284 58 119 106
295 306 302 301 310 300 271 256 252 252 248 249 256 257 260 271 278 272 275 278 273 269 266 259 242 220 233 216 204 215 185 192 188 215 241 229 196 249 180 226 267 204 257 272 3 183 137
289 291 309 306 309 322 266 259 253 246 245 245 247 250 248 257 266 262 272 281 278 272 259 249 211 231 223 201 197 188 179 178 160 228 272 184 212 234 219 206 213 350 287 332 311 143 203
286 286 296 305 309 309 333 214 239 236 237 240 234 221 241 256 252 248 256 260 265 251 213 211 232 143 144 188 172 174 190 177 163 200 219 186 225 215 236 207 319 347 295 272 289 334 345
308 278 291 306 301 304 295 303 330 214 213 215 219 220 231 245 245 241 241 216 257 222 280 236 226 206 173 172 162 200 193 175 190 218 183 144 227 67 76 59 341 288 279 278 281 84 339
313 286 289 300 291 281 278 289 291 289 299 309 311 278 260 241 244 238 233 217 251 290 261 206 211 206 203 201 215 172 182 193 216 223 190 237 86 109 30 284 241 254 259 322 318 334 264
330 293 292 295 287 246 273 280 263 280 293 291 297 303 294 293 254 236 219 226 216 185 275 203 199 192 181 152 181 188 174 173 205 223 197 252 110 207 207 247 76 283 28 8 326 2 281
314 322 276 308 293 264 235 235 254 269 280 284 293 304 306 231 230 187 197 187 174 152 235 95 138 155 160 176 135 173 169 165 207 185 146 128 166 170 109 51 57 178 355 292 297 311 332
296 312 262 268 315 255 293 299 300 297 294 292 288 302 279 248 212 216 200 178 155 129 238 135 130 163 156 170 137 126 144 146 91 129 191 58 64 13 220 100 64 343 306 254 219 295 264
283 296 288 257 273 284 289 296 300 301 299 294 293 273 248 217 213 200 196 156 154 204 346 171 178 163 189 158 151 186 170 178 174 137 186 136 161 105 308 171 152 85 256 272 269 304 237
291 271 289 276 261 272 275 282 291 289 285 288 279 265 229 215 196 198 190 182 218 188 169 151 138 166 173 133 155 182 167 194 214 66 145 170 244 162 43 28 97 142 274 139 268 321 330
327 305 267 280 276 263 269 277 279 287 290 294 297 235 234 209 205 196 203 236 189 230 142 149 128 142 167 160 164 178 202 192 129 196 183 121 146 92 59 43 324 167 140 21 274 102 51
313 316 274 260 271 264 263 267 276 280 281 245 306 234 242 204 195 192 214 219 173 73 92 47 179 196 175 170 169 204 175 17 130 221 225 99 121 157 112 346 14 25 34 90 307 270 263
294 313 311 265 257 268 262 277 269 272 272 205 232 217 215 192 192 187 216 244 166 115 85 149 182 126 246 160 177 221 161 350 106 147 246 133 100 126 145 211 162 121 168 241 11 187 229
286 293 309 312 255 251 264 269 265 259 242 208 234 226 240 187 189 197 216 155 146 111 133 180 231 96 166 114 164 171 194 70 131 153 161 42 144 186 117 65 24 23 334 195 174 198 241
300 285 286 307 313 239 248 259 257 247 203 192 235 192 213 191 205 203 144 121 125 139 171 199 207 126 60 149 173 200 114 107 149 170 129 174 205 164 175 138 114 217 180 245 72 59 212
299 287 289 288 306 271 223 243 245 265 196 221 259 196 162 210 244 225 150 180 162 178 235 198 179 106 121 145 52 165 130 135 133 112 107 18 276 228 164 85 102 190 206 208 203 209 232
301 291 285 279 295 292 236 220 232 237 201 219 231 209 181 202 212 232 172 181 177 162 219 213 192 183 174 143 143 185 130 113 171 152 150 161 229 85 278 226 204 209 218 200 212 224 236
301 300 286 278 278 304 218 225 214 208 205 219 241 182 190 296 248 194 202 196 193 157 175 193 203 190 192 150 168 174 136 169 183 167 170 169 112 84 287 8 137 250 234 219 226 236 252
297 294 291 283 261 276 291 268 212 210 208 209 227 238 206 184 188 202 213 191 214 149 205 182 192 140 184 160 122 68 89 62 125 151 158 150 151 168 270 232 315 298 223 195 186 199 208
291 291 287 274 271 259 279 289 263 204 217 202 220 214 199 226 198 215 267 213 211 177 133 175 156 126 123 145 124 99 64 72 98 159 151 152 152 147 279 22 273 249 95 173 173 229 236
284 286 284 278 268 275 258 280 260 210 210 206 206 214 191 243 206 217 242 245 207 185 92 126 118 111 148 127 120 97 61 23 348 244 201 164 173 198 181 245 278 248 231 160 154 274 197
278 277 280 275 267 272 252 259 275 262 201 210 215 214 216 131 189 342 190 167 149 130 117 100 140 152 174 182 155 184 196 197 197 289 304 184 147 161 123 234 237 228 200 171 111 301 326
272 272 272 272 267 260 270 248 269 264 201 200 213 218 206 201 257 181 161 195 198 158 98 127 145 155 170 176 176 184 197 156 182 171 165 146 159 219 217 259 288 202 149 151 92 233 168
268 266 263 268 263 261 265 248 260 268 190 198 210 215 203 200 189 189 191 326 195 148 146 131 125 166 148 229 171 193 147 199 113 149 174 164 166 189 182 210 265 144 119 169 149 191 263
266 264 258 261 256 253 256 249 239 235 210 195 191 202 194 205 178 236 246 251 232 150 123 168 61 146 172 177 160 102 111 129 198 223 178 231 201 183 187 211 47 171 117 155 65 274 296